This is the latest recevied weather packets stored in our database for station/object AC1IX. If no packets are shown the sender has not sent any weather packets the latest 10 day(s).
| Time | Temp. | Humidity | Pressure | Rain* | Wind** | Luminosity | Snow |
|---|---|---|---|---|---|---|---|
| 1778003954 | 26.67° C | 42% | 1006.5 hPa | 0 mm | - | 821 W/m² | - |
| 1778003650 | 25.56° C | 41% | 1006.8 hPa | 0 mm | - | 826 W/m² | - |
| 1778003347 | 26.67° C | 39% | 1006.9 hPa | 0 mm | - | 746 W/m² | - |
| 1778003044 | 27.22° C | 40% | 1007.2 hPa | 0 mm | - | 326 W/m² | - |
| 1778002740 | 27.22° C | 39% | 1007.2 hPa | 0 mm | - | 668 W/m² | - |
| 1778002436 | 27.22° C | 40% | 1007.2 hPa | 0 mm | - | 133 W/m² | - |
| 1778002134 | 26.67° C | 41% | 1007.1 hPa | 0 mm | - | 751 W/m² | - |
| 1778001832 | 26.67° C | 41% | 1007.2 hPa | 0 mm | - | 787 W/m² | - |
| 1778001531 | 26.67° C | 42% | 1007.3 hPa | 0 mm | - | 143 W/m² | - |
| 1778001228 | 26.67° C | 41% | 1007 hPa | 0 mm | - | 658 W/m² | - |
| 1778000924 | 26.67° C | 40% | 1007.1 hPa | 0 mm | - | 685 W/m² | - |
| 1778000622 | 26.11° C | 44% | 1007.2 hPa | 0 mm | - | 244 W/m² | - |
| 1778000317 | 26.11° C | 42% | 1007.2 hPa | 0 mm | - | 445 W/m² | - |
| 1778000013 | 27.22° C | 42% | 1007.3 hPa | 0 mm | - | 662 W/m² | - |
| 1777999708 | 26.67° C | 44% | 1007.5 hPa | 0 mm | - | 642 W/m² | - |
| 1777999405 | 26.67° C | 41% | 1007.4 hPa | 0 mm | - | 700 W/m² | - |
| 1777999104 | 26.67° C | 43% | 1007.4 hPa | 0 mm | - | 706 W/m² | - |
| 1777998802 | 26.67° C | 44% | 1007.5 hPa | 0 mm | - | 704 W/m² | - |
| 1777998500 | 26.67° C | 44% | 1007.8 hPa | 0 mm | - | 638 W/m² | - |
| 1777998196 | 26.67° C | 44% | 1007.8 hPa | 0 mm | - | 730 W/m² | - |
| 1777997893 | 26.11° C | 46% | 1007.8 hPa | 0 mm | - | 731 W/m² | - |
| 1777997590 | 26.11° C | 43% | 1008 hPa | 0 mm | - | 729 W/m² | - |
| 1777997288 | 25.56° C | 46% | 1008.2 hPa | 0 mm | - | 672 W/m² | - |
| 1777996986 | 25° C | 47% | 1008.2 hPa | 0 mm | - | 682 W/m² | - |
| 1777996682 | 25° C | 48% | 1008.2 hPa | 0 mm | - | 538 W/m² | - |
* Rain latest hour (hover to see other rain measurements)
** Current wind speed in m/s (hover to see current wind gust speed)